Regional Weather Roundup
Issued by NWS

Home | Current Version | Previous Version | Text Only | Print | Product List | Glossary Off
Versions: 1 2 3 4 5 6 7 8 9 10 11 12 13 14 15 16 17 18 19 20 21 22 23 24 25 26 27 28 29 30 31 32 33 34 35 36 37 38 39 40 41 42 43 44 45 46 47 48 49 50

451
ASUS43 KLOT 251209
RWRIL

ILLINOIS REGIONAL WEATHER ROUNDUP
NATIONAL WEATHER SERVICE CHICAGO/ROMEOVILLE IL
700 AM CDT SUN JUN 25 2017

NOTE: "FAIR" INDICATES FEW OR NO CLOUDS BELOW 12,000 FEET WITH NO
SIGNIFICANT WEATHER AND/OR OBSTRUCTIONS TO VISIBILITY.

* THESE STATIONS ARE NOT UNDER NWS QUALITY CONTROL. THEY ALSO MAY NOT
  REPORT WEATHER SUCH AS PRECIPITATION OR FOG.

ILZ001-002-007-009-015-016-024-251300-
NORTHWEST ILLINOIS

CITY           SKY/WX    TMP DP  RH WIND       PRES   REMARKS
MOLINE         SUNNY     58  53  84 W3        30.15R
6HR MIN TEMP:  52; 6HR MAX TEMP:  58;

STERLING*      MOSUNNY   57  52  83 W8        30.14R
SAVANNA*       MOSUNNY   57  49  74 W7        30.13S
$$

ILZ003-004-008-010-011-017-018-251300-
NORTH CENTRAL ILLINOIS

CITY           SKY/WX    TMP DP  RH WIND       PRES   REMARKS
ROCKFORD       SUNNY     56  50  80 W9        30.13R
6HR MIN TEMP:  52; 6HR MAX TEMP:  56;

FREEPORT*      SUNNY     53  49  87 W7        30.13S
ROCHELLE*      MOSUNNY   55  51  87 W10       30.12S
DE KALB*       SUNNY     56  50  82 W12G18    30.11S
PERU*          SUNNY     56  49  78 W8        30.14S
$$

ILZ005-006-012>014-019>023-251300-
NORTHEAST ILLINOIS

CITY           SKY/WX    TMP DP  RH WIND       PRES   REMARKS
CHICAGO-OHARE  MOSUNNY   57  48  72 W10       30.08R
6HR MIN TEMP:  54; 6HR MAX TEMP:  59;

CHICAGO-MIDWAY SUNNY     59  48  67 W13       30.09R
6HR MIN TEMP:  56; 6HR MAX TEMP:  63;

AURORA         SUNNY     55  51  86 SW7       30.12R
6HR MIN TEMP:  49; 6HR MAX TEMP:  55;

LANSING*       SUNNY     58  47  67 W9        30.11S
JOLIET*        SUNNY     59  51  73 W6        30.12R
WAUKEGAN       SUNNY     57  50  77 W7        30.06R
6HR MIN TEMP:  53; 6HR MAX TEMP:  57;

DUPAGE AIRPORT SUNNY     56  51  84 W8        30.10R
6HR MIN TEMP:  51; 6HR MAX TEMP:  57;

WHEELING       SUNNY     57  50  77 W10       30.09R
6HR MIN TEMP:  54; 6HR MAX TEMP:  59;

MORRIS*        SUNNY     57  50  78 W8        30.11S
ROMEOVILLE*    MOSUNNY   58  48  69 W9        30.11S
NORTHERLY ISL    N/A     59  46  62 SW7         N/A
$$

LMZ740>746-251300-
SOUTHERN LAKE MICHIGAN

STATION/POSITION SKY/WX   TEMP    WIND        PRES    VSBY  WAVE
                          AIR SEA DIR/SP/G                  HT/PER
                          (F)     (DEG/KT/KT) (MB)    (MI)  (FT/S)
SOUTHERN BUOY              58 61  310/ 17/ 19 1016.5          4/ 5
WILMETTE HARBOR            58 64  270/ 14/ 17   N/A           2/ 2
HARRISON CRIB              59     260/ 16/ 19   N/A
BURNHAM HARBOR             59                   N/A
CALUMET HARBOR             59     250/  5/  9 1018.4R
BURNS HARBOR               61     270/ 13/ 18 1019.3R
MICHIGAN CITY              61     270/ 18/ 19   N/A
MICHIGAN CITY 6N           61 67  280/ 16/ 19   N/A           4/ 5
ST. JOSEPH                 61 68  290/ 16/ 19 1018.3          5/ 5
$$

ILZ025>027-034>036-040-047-049-050-058-095>099-251300-
WEST-CENTRAL ILLINOIS

CITY           SKY/WX    TMP DP  RH WIND       PRES   REMARKS
QUINCY         MOSUNNY   59  52  77 W5        30.19R
GALESBURG*     MOSUNNY   55  50  83 W6        30.18R
MACOMB*        SUNNY     55  52  90 W6        30.20S
PITTSFIELD*    SUNNY     59  52  77 W3        30.20R
$$

ILZ028>032-037-038-041>044-048-051>054-059>061-251300-
CENTRAL ILLINOIS

CITY           SKY/WX    TMP DP  RH WIND       PRES   REMARKS
PONTIAC        SUNNY     58  53  84 W7        30.15S
BLOOMINGTON    SUNNY     59  49  69 W5        30.17R
DECATUR        MOSUNNY   61  49  64 W7        30.17R
PEORIA         SUNNY     57  50  77 W5        30.17R
6HR MIN TEMP:  53; 6HR MAX TEMP:  62;

LACON*         SUNNY     58  51  80 SW5       30.15R
LINCOLN*       MOSUNNY   60  51  72 W3        30.17R
SPRINGFIELD    MOSUNNY   59  53  80 CALM      30.17R
6HR MIN TEMP:  55; 6HR MAX TEMP:  63;

TAYLORVILLE    SUNNY     59  50  71 W9        30.18S
6HR MIN TEMP:  54; 6HR MAX TEMP:  60;

$$

ILZ033-039-045-046-055>057-062-063-251300-
EAST-CENTRAL ILLINOIS

CITY           SKY/WX    TMP DP  RH WIND       PRES   REMARKS
CHAMPAIGN      SUNNY     57  49  74 W5        30.16R
RANTOUL*       SUNNY     59  51  74 W5        30.16R
MATTOON        MOSUNNY   62  50  64 W6        30.15S
PARIS*         MOSUNNY   58  52  79 W7        30.17R
$$

ILZ079-100>102-251300-
SOUTHWEST ILLINOIS

CITY           SKY/WX    TMP DP  RH WIND       PRES   REMARKS
ALTON          MOSUNNY   59  54  82 W7        30.20R
BELLEVILLE     SUNNY     61  51  68 SW7       30.21R
CAHOKIA*       SUNNY     63  50  62 W6        30.20R
SPARTA*        MOSUNNY   62  49  61 SW5       30.22R
$$

ILZ064>066-069>071-074>076-080>082-084>086-088>090-092>094-251300-
SOUTH-CENTRAL ILLINOIS

CITY           SKY/WX    TMP DP  RH WIND       PRES   REMARKS
CARBONDALE     SUNNY     59  57  93 W3        30.21R
6HR MIN TEMP:  54; 6HR MAX TEMP:  60;

CAIRO*         SUNNY     62  60  95 CALM      30.22R
EFFINGHAM*     MOSUNNY   61  52  72 NW8       30.21R
MARION         SUNNY     61  61 100 SW5       30.21R
MT. VERNON     MOSUNNY   59  56  89 SW3       30.20R
CENTRALIA*     MOSUNNY   63  51  66 SW6       30.19R
SALEM*         MOSUNNY   63  50  62 SW8       30.18S
METROPOLIS*    MOSUNNY   60  59  96 CALM      30.22S
$$

ILZ067-068-072-073-078-083-087-091-251300-
SOUTHEAST ILLINOIS

CITY           SKY/WX    TMP DP  RH WIND       PRES   REMARKS
LAWRENCEVILLE  MOSUNNY   61  54  77 SW5       30.17R
FLORA*         MOSUNNY   64  50  59 SW8       30.19R
FAIRFIELD*     MOSUNNY   59  55  87 CALM      30.19R
HARRISBURG*    SUNNY     59  57  94 CALM      30.20S
ROBINSON*      MOSUNNY   61  50  68 SW12      30.17R
CARMI*         MOSUNNY   62  55  80 SW5       30.18S
$$

ABBREVIATIONS USED IN REMARKS
   TC - TEMPERATURE IN CELSIUS
  WCI - WIND CHILL INDEX
   HX - HEAT INDEX
  VSB - VISIBILITY
$$





USA.gov is the U.S. government's official web portal to all federal, state and local government web resources and services.